STARLINK-1575, 46349

Orbit data source: Space-Track

STARLINK-1575, 46349 is a payload satellite owned by SpaceX/Seattle (US) in LEO that was launched on Thu, 03 Sep 2020 UTC via an FALCON 9 launch vehicle from the Air Force Eastern Test Range (AFETR). Payload-class satellites include a variety of spacecraft equipped with specific instruments for various scientific and technological missions. These include communications satellites like Starlink; space stations such as the ISS; scientific satellites like the Hubble; Earth observation satellites from companies like Planet Labs, Umbra, and HawkEye 360; GPS; miniature CubeSats for education and research; and military/defense satellites.

Loading next visibility...
Identifier
46349, 2020-062AA
Orbit
LEO
Country
Flag of USUS
Related business
Manufacturer
SpaceX/Seattle
Mission
Partially operational Commercial Communications
Bus & Motor
STARLINK, Unknown motor
Mass
260 kg wet, ~248 kg dry
Launch date (UTC)
2020-09-03 (5 years ago)
Launch vehicle
FALCON 9
Launch site
Air Force Eastern Test Range (AFETR)
Object type
Payload
Rocket body
Debris
Shape & HBR
Box + 1 Pan, 4.4 m
Radar Cross Section
13.562 m², Large (>1 m²)

Expand to show TLE details & history
Last TLE update: 21 hours ago

TLE from 21 hours ago
0 STARLINK-1575
1 46349U 20062AA  25260.64062526  .00084389  00000-0  26780-2 0  9999
2 46349  53.0457  17.3447 0006273 249.8393 110.1932 15.31951321279011
Epoch: 2025-09-17T15:22Z
TLE epoch observation values (Epoch: 2025-09-17T15:22:30.022Z)
Latitude
-0.00006°
Longitude
149.9059°
Altitude
472.364 km
Speed
7.63 km/s
True Right ascension
01h 09m 22s
True Declination
0° 00' 00"
Sunlit
Object was in full shadow at epoch
Visualization orbit readout
Latitude
Unknown
Longitude
Unknown
Altitude
Unknown
Speed
Unknown
Apparent Right ascension
Unknown
Apparent Declination
Unknown
Sunlit
N/A
Visualization observer readout
Local Sidereal Time
05:14:55
Azimuth
Unknown
Elevation
Unknown
Doppler factor
Unknown
Orbital elements
Apogee altitude
474.562 km
Perigee altitude
465.97 km
Semi-major axis
6,848.403 km
Eccentricity
0.00063
Inclination
53.0457°
RAAN
17.3447°
Arg. of periapsis
249.8393°
True anomaly
110.26065°
Mean anomaly
110.1932°
Eccentric anomaly
110.22693°
Mean motion
3.82965 °/min
Orbital period
94 mins
BSTAR
0.002678
Loading maneuver chart data...
Computing Atmospheric mass density...
Loading historical data...
Loading historical data...
Loading historical data...
Loading historical data...
Loading historical data...
Loading historical data...
Loading historical data...

Documentation

Showing up to 5 results
|